Location: Godiavel Galaoual
(15.2485°N, 12.6604°W)
Time: 01:29:41
(UTC+00:00)

LilacSat-2 - Visible Passes

Search period start: 26 July 2021 00:00
Search period end: 05 August 2021 00:00
Orbit: 510 x 534 km, 97.5° (Epoch: 25 July)

Date Brightness Start Highest point End Pass type
(mag) Time Alt. Az. Time Alt. Az. Time Alt. Az.
29 Jul ? 06:00:58 10° NNE 06:04:28 35° E 06:07:58 10° SSE visible
30 Jul ? 05:48:42 10° NE 05:51:43 22° E 05:54:45 10° SSE visible
31 Jul ? 05:36:47 10° ENE 05:38:57 15° E 05:41:09 10° SE visible
